Location: *
(41.0833°N, 73.4167°W)
Time: 09:31:23
(UTC+00:00)

Milstar 3 - Pass Details

Date: 22 October 2019
Orbit: 1111 x 5134 km, 28.2° (Epoch: 06 September)

Event Time Altitude Azimuth Distance (km) Brightness Sun altitude
Exits shadow 10:34:55 - 243° (WSW) 3,962 5.2 -7.8°
Reaches altitude 10° 10:37:39 10° 233° (SW) 3,018 4.7 -7.3°
Maximum altitude 10:43:22 29° 174° (S) 1,920 4.2 -6.3°
Drops below altitude 10° 10:49:37 10° 116° (ESE) 3,311 6.8 -5.1°
Sets 10:53:21 0° 106° (ESE) 4,618 8.9 -4.4°
